sat.trackr.live / text

‹ back to catalog

RESURS-P 5

NORAD 62430 · 2024-250A

PAYLOAD ACTIVE UNKNOWN

§ Identity

Operator
Country
CIS
Launch date
2024-12-25
Launch site
TYMSC
Launch vehicle
Mass (kg)
RCS (m²)

External: N2YO · Heavens-Above · Gunter

§ Orbital elements

Epoch: 2026-05-25T04:15:55.509120Z

Period
94.00 min
Inclination
97.2788°
Eccentricity
0.0001024
Mean motion
15.31942080 rev/d
Perigee alt
469.3 km
Apogee alt
470.7 km
Semi-major
6,848.2 km
B*
8.7019e-5
RAAN
70.9063°
Arg perigee
57.3924°
Mean anomaly
302.7417°
Rev number
7,902

§ Raw data

RESURS-P 51 62430U 24250A   26145.17772580  .00002607  00000+0  87019-4 0  99962 62430  97.2788  70.9063 0001024  57.3924 302.7417 15.31942080 79025

JSON: /api/v1/satellites/62430 · /tle

For live sub-satellite position, see the globe view (requires WebGL).

§ Visibility from observer

Set your observer location to see the next 7 days of passes ≥ 10°. The values pass through the URL so the page stays shareable.

No JS? Fill the form by hand. The geolocation button needs JavaScript.